COSMOS 1275 DEB, 42131

Orbit data source: Space-Track

COSMOS 1275 DEB, 42131 is space debris in LEO originally from a launch on Thu, 04 Jun 1981 UTC launched from the Plesetsk Missile And Space Complex (PKMTR). Debris objects in space refer to the collection of defunct objects orbiting the Earth. Examples of debris include non-operational satellites, rocket bodies, and fragments generated from explosions, collisions, or faulty payload assembly.

Loading next visibility...
COSMOS 1275 DEB details
Identifier
42131, 1981-053QT
Orbit
LEO
Last TLE update2 months ago
Origin
Flag of CISGUKOS (CIS)
ManufacturerUnknown
MissionSpacecraft
Bus & MotorUnknown
MassUnknown
Launch date (UTC)
1981-06-04 (44 years ago)
Launch vehicleUnknown
Launch site
Plesetsk Missile And Space Complex (PKMTR)
Object type
Payload
Rocket body
Debris
Shape & HBRUnknown
Radar Cross SectionSmall (<0.1 m²)

Expand to show TLE details & history

TLE from 2 months ago
0 COSMOS 1275 DEB
1 42131U 81053QT  24301.30213918  .00033845  00000-0  98006-2 0  9993
2 42131  82.8749 135.1696 0019025 318.6456 221.6378 14.44175064568422
Epoch: 2024-10-27T07:15Z
Definitive object data (Epoch: 2024-10-27T07:15:04.825Z)
Latitude-0.25776°
Longitude170.2869°
Altitude757.906 km
Speed7.47 km/s
True Right ascension21h 00m 48s
True Declination0° 15' 22"
Sunlit
Object was in daylight at TLE epoch
Visualization TLE readout
Latitude35.1828°
Longitude114.42986°
Altitude722.723 km
Speed7.504 km/s
Apparent Right ascension20h 51m 43s
Apparent Declination0° 00' 04"
Sunlit
Object is in daylight
Visualization observer readout
Local Sidereal Time16:01:12
Azimuth101.35° ESE
Elevation13.239°
Doppler factor1
Orbital elements
Apogee altitude755.339 km
Perigee altitude728.248 km
Semi-major axis7,119.931 km
Eccentricity0.0019025
Inclination82.8749°
RAAN135.1696°
Arg. of periapsis318.6456°
True anomaly221.49321°
Mean anomaly221.6378°
Eccentric anomaly221.56548°
Mean motion3.61268 °/min
BSTAR0.0098006
Orbital period99.65 mins
Loading maneuver chart data...
Loading historical data...
Loading historical data...
Loading historical data...
Loading historical data...
Loading historical data...
Loading historical data...
Loading historical data...

COSMOS 1275 DEB Visibility forecast

Observer location: undefined°, undefined

Span
Click to sort rows by Start time (UTC) header in descending order
Start Az.
Max El. time (UTC)
Max El. Az.
Max El.
End time (UTC)
End Az.
7 mins2024-12-26 18:14:00.605Z334.503° NNW2024-12-26 18:17:00.605Z277.715° WNW36.423°2024-12-26 18:21:00.605Z198.415° SSW
5 mins2024-12-27 05:24:00.605Z114.183° SE2024-12-27 05:26:00.605Z85.546° E17.492°2024-12-27 05:29:00.605Z45.875° ENE
7 mins2024-12-27 07:03:00.605Z220.757° SW2024-12-27 07:06:00.605Z288.418° WNW34.626°2024-12-27 07:10:00.605Z351.399° N
|